Location: Arnold
(38.6403°N, 100.0462°W)
Time: 13:41:24
(UTC-06:00)

Hubble Space Telescope - Visible Passes

Search period start: 16 December 2018 00:00
Search period end: 26 December 2018 00:00
Orbit: 537 x 540 km, 28.5° (Epoch: 16 December)

Date Brightness Start Highest point End Pass type
(mag) Time Alt. Az. Time Alt. Az. Time Alt. Az.
20 Dec 3.5 19:42:39 10° S 19:42:46 10° S 19:42:46 10° S visible
21 Dec 3.2 19:31:30 10° SSW 19:32:58 13° S 19:32:58 13° S visible
22 Dec 3.0 19:20:35 10° SSW 19:23:00 15° SSE 19:23:10 15° SSE visible
23 Dec 2.8 19:09:47 10° SSW 19:12:26 17° S 19:13:21 16° SSE visible
24 Dec 2.8 18:59:04 10° SW 19:01:54 18° S 19:03:33 15° SE visible
25 Dec 2.9 18:48:25 10° SW 18:51:21 19° S 18:53:46 12° SE visible
